Location: New York
(40.7140°N, 74.0060°W)
Time: 20:25:38
(UTC-04:00)

ISS - Visible Passes

Search period start: 23 September 2014 00:00
Search period end: 03 October 2014 00:00
Orbit: 413 x 416 km, 51.6° (Epoch: 23 September)

Date Brightness Start Highest point End Pass type
(mag) Time Alt. Az. Time Alt. Az. Time Alt. Az.
23 Sep 0.0 04:07:28 11° NNE 04:07:28 11° NNE 04:07:41 10° NNE visible
23 Sep -0.6 05:41:37 10° NNW 05:43:29 14° N 05:45:20 10° NE visible
24 Sep -0.6 04:53:25 12° NNW 04:54:16 13° N 04:55:53 10° NNE visible
25 Sep 0.1 04:06:32 10° NNE 04:06:32 10° NNE 04:06:36 10° NNE visible
25 Sep -0.9 05:40:14 10° NNW 05:42:44 19° NNE 05:45:14 10° ENE visible
26 Sep -0.7 04:52:33 14° N 04:53:32 16° NNE 04:55:40 10° NE visible
27 Sep 0.1 04:05:45 11° NE 04:05:45 11° NE 04:06:05 10° NE visible
27 Sep -1.8 05:38:40 10° NW 05:41:45 34° NNE 05:44:49 10° E visible
28 Sep -1.3 04:51:56 22° N 04:52:35 24° NNE 04:55:22 10° E visible
29 Sep 0.2 04:05:19 12° ENE 04:05:19 12° ENE 04:05:47 10° ENE visible
29 Sep -3.3 05:38:13 19° NW 05:40:28 81° NE 05:43:47 10° SE visible
30 Sep -2.2 04:51:45 45° NE 04:51:45 45° NE 04:54:36 10° ESE visible
01 Oct -2.6 05:38:20 32° WSW 05:38:54 34° SW 05:41:56 10° SSE visible
02 Oct -1.0 04:52:10 18° SE 04:52:10 18° SE 04:53:09 10° SE visible
